[sarex] 2 Line ISS Keps 3-17

Dave Larsen PhD doc at volcano.net
Tue Mar 17 05:04:02 PDT 2009


ISS
1 25544U 98067A   09075.47729483  .00010811  00000-0  87093-4 0  4712
2 25544 051.6399 061.9180 0009436 128.4321 014.6599 15.71494551591363



More information about the SAREX mailing list